Dewpoint
65 70 72 72 71 71 72 71 71 71 70 69 68 67 66 65 64 64 64 63 64 63 64 63 65 65 64 64 64 61 60 61 61 62 62 62 61 61 61 59 59 59 61
66 70 72 71 71 71 72 72 71 71 70 69 68 66 65 64 62 62 63 63 64 65 63 64 66 65 65 63 61 59 61 61 60 60 61 62 61 59 60 62 60 59 61
67 69 69 71 70 71 72 71 71 70 68 67 67 65 64 62 60 60 62 62 65 67 65 66 67 65 63 60 58 60 62 62 62 60 60 59 58 57 60 62 62 60 58
69 68 66 67 67 71 72 71 71 69 68 67 66 62 63 60 59 59 60 61 65 66 65 65 64 63 62 60 61 63 63 63 61 60 59 61 62 62 60 60 59 61 62
68 67 66 67 67 71 71 71 71 70 68 67 65 63 63 59 59 60 60 62 62 64 64 63 63 63 63 62 63 63 63 63 62 58 59 62 63 63 64 65 64 64 61
68 67 68 68 69 70 70 70 70 70 69 67 66 64 61 60 60 61 61 62 63 62 62 61 61 62 62 62 63 64 63 62 60 60 58 61 63 62 61 64 65 65 65
68 68 67 69 69 68 67 67 68 68 69 67 66 64 62 60 61 61 61 62 62 62 62 62 63 64 64 64 64 63 63 62 60 60 62 62 62 61 60 64 63 63 64
68 68 66 69 69 68 67 67 67 67 67 67 67 64 63 62 61 61 62 63 63 63 63 64 64 65 64 63 62 61 60 60 61 61 61 60 61 59 62 63 61 60 61
68 68 68 67 68 68 67 66 66 66 67 68 67 65 65 64 63 62 62 63 64 64 64 65 65 64 61 58 57 58 60 57 57 57 56 57 59 62 63 61 60 59 58
68 68 68 68 68 67 65 68 67 66 68 69 67 65 65 65 65 64 64 63 64 65 65 65 65 62 56 55 60 60 58 55 53 54 55 57 62 62 62 60 59 57 56
66 68 68 68 68 67 65 67 67 66 66 66 66 65 65 64 64 65 64 64 64 65 65 66 64 58 55 52 57 55 51 50 49 54 61 63 61 60 60 59 57 55 54
64 65 67 68 67 67 65 65 66 66 65 64 64 64 64 65 65 65 65 65 65 65 65 65 61 56 41 39 42 49 49 51 52 58 60 62 59 59 58 56 55 54 53
64 64 65 66 68 67 66 65 65 67 65 64 64 64 64 64 65 65 65 64 64 65 62 60 51 43 40 34 38 46 49 52 56 59 60 59 57 55 54 54 53 51 50
64 64 65 67 68 68 67 65 63 65 65 64 65 64 63 63 65 65 65 65 64 64 59 53 43 35 33 30 35 44 49 53 57 58 58 57 55 54 52 51 49 48 48
63 64 65 66 66 67 67 66 64 63 65 64 64 64 63 63 64 65 64 64 63 62 58 49 38 30 29 27 31 42 47 52 55 56 56 56 55 51 50 48 46 45 46
64 64 65 66 67 67 66 65 65 63 62 64 64 63 63 61 63 64 64 63 62 61 57 47 35 29 28 27 28 40 47 51 53 53 53 52 52 49 46 45 43 43 44
62 64 65 65 66 67 66 66 65 64 63 62 63 63 63 62 61 63 63 62 62 60 54 40 31 28 28 26 26 36 46 49 50 50 48 48 46 45 43 42 40 40 41
45 60 65 66 66 66 66 66 65 65 64 62 61 62 63 62 61 61 62 62 61 58 48 38 31 29 29 27 25 28 41 46 47 47 44 42 41 39 38 39 37 36 35
37 40 57 65 66 66 66 66 66 65 65 64 62 61 61 61 61 60 60 61 60 56 45 36 31 30 28 27 25 27 30 42 44 43 38 38 38 36 35 36 35 33 31
38 37 39 53 65 67 67 66 66 65 64 64 63 61 60 60 61 60 60 60 58 54 46 36 32 29 28 27 21 28 30 30 41 40 36 33 35 32 34 32 25 26 35
37 37 37 38 48 63 65 64 64 63 63 64 64 63 61 60 59 59 59 58 55 53 48 38 31 28 25 28 28 30 30 30 30 36 36 31 32 29 27 25 23 23 23
34 35 36 37 39 49 61 63 63 63 63 63 64 63 62 61 59 58 58 56 53 52 47 37 31 28 26 29 27 29 27 27 27 27 30 29 28 27 24 22 22 23 23
31 33 34 36 37 40 55 63 63 62 61 63 63 62 63 62 60 59 58 57 52 51 45 38 33 31 27 27 28 28 26 26 27 24 26 28 27 25 23 22 22 22 21
34 33 32 34 36 38 48 60 61 60 59 61 61 62 62 62 61 60 58 58 54 50 47 41 35 33 30 27 26 23 23 26 25 21 22 23 24 23 22 23 21 21 22
39 39 39 34 32 35 40 54 61 60 60 61 61 62 61 60 60 59 58 57 55 51 49 45 39 34 31 30 27 23 20 21 19 22 21 21 21 22 21 21 21 19 20
39 40 40 40 39 36 35 42 57 60 60 60 60 60 61 59 58 58 57 55 55 52 50 46 44 39 35 32 28 22 21 19 18 17 18 20 21 21 21 22 21 20 20
Wind_Speed
9 14 18 20 19 16 17 17 15 16 17 16 13 13 12 11 10 10 10 8 7 7 7 9 11 13 13 13 12 12 12 13 12 12 13 12 11 11 10 9 6 6 5
15 18 19 16 17 16 16 17 16 16 17 15 13 11 11 10 9 9 9 8 8 6 9 7 9 14 14 13 11 12 12 12 11 11 11 11 10 10 9 8 6 7 6
21 19 21 20 17 16 15 16 17 15 16 13 12 13 9 9 9 9 10 9 9 16 12 10 14 16 14 12 12 12 12 11 9 9 9 9 9 8 6 5 6 6 5
19 17 18 18 17 16 16 16 16 17 17 14 12 10 8 8 9 9 10 9 11 16 15 15 15 15 13 12 13 12 10 10 9 8 7 7 7 7 5 3 3 3 2
18 17 16 18 16 16 16 14 16 17 16 13 12 12 9 9 10 10 11 9 10 11 11 11 12 12 12 12 11 10 9 8 7 7 6 5 4 6 9 8 3 0 1
15 16 18 18 16 16 14 12 13 14 16 15 14 13 11 11 11 11 11 10 10 9 9 10 11 11 11 10 9 8 8 6 5 6 5 3 4 9 9 10 12 13 13
15 15 16 18 16 14 14 12 12 12 13 14 16 14 12 12 12 12 12 11 10 9 10 10 11 11 10 9 8 7 8 7 8 7 5 4 4 8 8 12 14 15 18
15 14 15 17 15 15 14 13 12 13 14 15 17 15 13 12 11 11 10 10 9 9 9 10 10 10 10 8 7 7 8 8 7 6 5 4 5 6 9 12 13 12 14
14 14 13 15 15 14 14 14 14 14 14 15 17 16 14 13 11 10 9 8 8 7 9 8 9 9 9 8 7 7 8 8 7 6 5 3 3 8 11 13 14 13 14
15 15 14 14 14 13 13 14 14 12 9 14 15 15 14 14 13 11 9 7 7 5 8 6 10 10 9 9 10 10 10 8 6 4 3 2 8 12 13 13 13 12 13
14 16 14 14 14 12 12 13 14 13 13 11 12 11 13 10 11 11 10 8 7 6 6 7 9 11 11 11 9 9 7 4 4 4 4 10 12 11 11 12 11 12 12
15 16 15 15 14 13 11 12 12 13 13 12 12 12 10 9 8 7 10 10 8 5 9 9 10 10 7 5 5 5 4 4 4 4 4 11 11 12 11 13 11 11 11
15 15 17 15 14 13 12 11 9 9 10 12 13 12 9 7 6 8 8 9 7 7 6 8 6 5 6 5 4 5 4 4 3 3 7 10 10 10 9 11 9 9 10
15 15 14 17 14 14 11 12 11 10 10 11 13 13 11 9 7 9 10 10 8 7 8 7 5 6 6 5 5 5 5 4 4 4 8 11 11 10 10 10 9 8 8
15 16 16 15 15 14 15 11 12 14 14 14 12 12 12 11 10 10 11 10 8 8 8 7 7 7 6 5 4 5 5 6 5 5 7 12 11 10 9 9 8 7 7
17 17 15 17 16 15 15 15 14 15 16 15 14 14 15 13 12 12 11 11 9 9 8 8 8 7 6 5 5 5 5 6 6 6 7 9 10 9 8 7 7 7 6
19 19 21 20 17 18 18 16 17 17 16 16 15 17 18 16 15 15 13 12 11 10 10 8 8 6 6 5 5 5 6 6 6 7 5 6 8 8 8 8 7 6 6
12 18 22 18 20 20 19 16 15 17 18 17 17 16 20 19 17 16 14 14 13 11 10 10 10 8 7 6 6 5 6 6 7 7 6 6 6 7 7 7 6 6 5
18 16 17 21 24 24 22 18 18 17 17 17 17 18 20 20 20 17 15 15 15 12 12 12 8 7 9 7 6 5 5 6 7 6 7 7 6 6 6 9 7 6 4
16 16 17 17 21 24 19 16 13 14 17 16 17 19 20 20 21 19 16 16 16 14 13 13 12 7 5 9 8 5 3 4 6 7 8 6 6 6 6 6 4 3 4
17 16 17 18 21 19 19 18 18 21 20 17 18 21 22 20 22 21 18 19 18 19 19 18 11 10 5 9 8 3 2 2 5 7 7 7 8 7 6 6 4 3 1
17 15 17 17 17 19 19 19 19 21 20 20 17 19 23 23 23 23 22 20 20 18 18 20 17 9 5 15 7 4 5 4 6 7 7 8 9 7 7 6 5 4 2
13 14 15 17 19 17 19 17 12 6 8 11 14 20 22 24 25 26 25 22 21 20 22 22 22 21 15 14 9 6 4 8 5 4 8 8 10 9 8 7 5 3 3
9 8 9 12 15 17 17 19 22 22 23 22 21 22 20 23 24 25 24 23 24 21 21 23 19 22 15 16 7 7 1 5 6 5 4 6 7 10 10 8 6 5 4
12 10 8 6 9 12 11 18 20 23 22 20 19 19 20 16 22 23 25 26 26 24 23 22 20 21 18 13 15 7 4 2 3 4 5 6 6 8 8 7 6 5 4
16 17 14 9 7 4 7 11 17 20 19 15 17 18 18 17 19 21 21 22 24 24 25 24 24 23 22 13 14 12 12 8 9 6 4 4 8 9 10 7 6 7 6
Wind_Direction
178 161 152 149 152 153 150 147 140 134 128 127 128 125 123 122 123 123 116 109 109 123 144 142 139 121 111 101 92 88 92 93 91 87 77 74 83 82 80 79 77 85 80
159 161 144 152 146 147 150 146 137 132 126 130 128 126 123 120 117 118 118 115 107 106 147 149 130 118 106 100 97 97 94 90 91 86 80 72 72 76 85 72 65 92 62
158 160 155 160 152 151 146 140 139 137 134 145 138 126 119 113 110 115 119 121 91 71 129 108 106 103 98 98 99 97 91 86 86 91 82 77 71 76 85 68 38 129 82
155 159 158 157 159 150 149 149 149 152 145 148 148 117 120 110 111 117 120 122 99 87 88 94 99 97 99 102 105 100 92 86 86 98 83 71 68 81 89 71 64 83 74
157 158 156 159 158 144 146 150 153 151 150 150 132 135 132 127 124 125 128 119 104 81 88 89 91 96 99 109 108 102 92 86 89 95 83 59 40 49 62 67 66 154 104
153 158 156 155 147 140 145 154 152 154 158 152 145 145 142 136 131 129 128 124 115 114 108 105 103 103 102 108 105 95 86 83 93 100 91 50 20 57 52 59 63 65 57
155 157 161 150 145 148 154 162 165 164 162 158 159 152 149 144 137 134 132 131 127 120 112 109 108 105 100 98 94 88 80 91 114 110 100 73 53 58 72 76 69 63 62
157 160 163 149 152 162 164 167 173 177 174 179 164 158 155 148 143 140 137 134 129 124 121 118 112 106 100 99 101 99 90 97 109 104 96 80 65 72 95 86 75 66 60
160 164 163 166 168 166 167 167 170 180 182 181 166 159 161 153 149 148 144 137 130 132 122 124 114 100 100 101 97 104 107 94 105 106 106 97 72 97 100 90 81 73 71
164 170 174 174 176 178 174 169 172 185 158 163 168 161 164 160 160 154 149 147 140 136 130 131 115 109 95 92 95 99 100 91 93 92 89 80 107 96 91 84 78 77 71
175 180 181 182 185 182 179 179 178 183 166 168 173 171 168 174 177 172 159 159 150 154 160 130 114 108 96 86 94 99 100 95 100 92 99 110 102 92 90 82 78 77 78
184 190 192 193 194 189 186 185 188 180 181 181 176 176 176 177 181 181 168 166 164 164 129 123 114 109 102 104 97 88 86 94 89 99 104 115 106 95 93 90 82 79 77
193 196 201 201 200 196 196 191 194 189 181 185 186 183 181 183 193 194 180 173 171 144 130 122 125 115 123 124 114 113 106 99 94 111 129 117 109 103 94 88 92 87 82
205 205 202 206 203 202 203 202 201 195 194 195 195 189 183 185 189 189 185 178 175 171 157 152 145 134 125 122 124 126 120 114 106 101 119 105 112 110 107 106 100 91 86
225 216 203 203 209 197 204 210 208 204 204 205 199 196 192 190 188 182 185 184 183 175 174 162 159 152 142 129 120 129 133 128 119 111 120 108 115 121 120 115 108 100 91
224 226 220 211 202 197 202 205 214 214 210 208 205 202 199 196 193 190 188 189 189 187 177 172 170 162 147 141 128 136 144 136 130 123 122 120 111 120 124 120 112 101 100
223 220 217 217 212 209 205 199 212 221 212 212 210 206 205 204 200 194 195 192 194 189 172 161 156 154 149 141 142 148 153 154 149 141 129 128 126 116 126 132 121 111 100
240 222 220 212 214 214 216 206 209 216 216 214 209 206 208 209 205 203 201 198 193 184 178 175 168 166 162 165 159 156 166 167 166 157 151 146 137 130 117 129 120 105 97
246 239 230 220 218 219 219 211 207 215 215 214 207 209 209 206 208 208 207 206 189 185 184 177 177 175 179 169 155 161 164 179 182 173 167 161 152 143 137 125 113 98 94
242 240 236 224 222 221 220 216 211 217 220 216 212 211 205 205 204 203 209 207 191 188 188 185 181 173 173 165 152 151 165 182 193 194 182 176 171 164 159 151 144 108 66
261 252 239 228 223 221 216 214 214 216 222 216 215 212 206 202 200 200 204 204 195 194 192 191 173 178 167 159 135 146 154 189 201 204 197 186 186 186 181 174 167 158 134
269 260 255 242 236 221 217 215 215 218 228 224 222 216 210 201 196 198 199 199 197 194 193 189 181 169 169 181 162 141 197 201 214 206 203 202 198 191 188 181 174 157 144
290 282 269 256 244 231 223 218 209 218 218 216 220 224 215 206 200 198 198 194 193 192 196 195 190 185 181 197 192 163 161 219 166 196 213 208 201 199 191 178 172 168 150
346 317 293 277 263 246 224 217 212 218 225 223 222 227 224 210 203 202 198 196 192 197 200 200 196 193 177 184 205 230 180 141 180 199 224 220 212 207 197 186 181 171 155
5 5 4 320 281 261 246 230 220 219 223 222 216 222 222 207 208 204 199 195 197 196 203 195 190 201 196 184 186 163 194 178 156 154 188 200 224 217 205 197 186 174 156
357 3 359 356 352 303 245 239 243 240 236 222 216 218 216 209 203 205 205 203 202 201 199 197 196 197 202 193 193 181 176 177 194 172 171 185 205 193 195 206 203 187 172